#timestamp,LO_Frequency,Hit,StdDev 
1656698415.7,286046997.8,N
1656698435.5,286046997.9,N
1656698455.4,286046997.2,N
1656698475.2,286046997.8,N
1656698495.1,286046998.0,N
1656698496.0,286046998.0,N
1656698515.8,286046999.0,N
1656698535.6,286046999.3,N
1656698555.5,286047001.2,N
1656698575.3,286046997.1,N
1656698595.1,286046995.8,N
1656698615.9,286046993.8,Y
1656698635.7,286046995.4,P
1656698655.6,286046995.2,P
1656698675.4,286046998.0,N
1656698695.2,286046997.9,N
1656698715.1,286046996.7,N
1656698716.0,286046996.7,N
1656698735.8,286046999.0,N
1656698755.7,286046998.6,N
1656698775.5,286047001.2,N
1656698795.3,286047000.9,N
1656698815.2,286047000.4,N
1656698835.0,286047000.5,N
1656698835.9,286047000.5,N
1656698855.8,286047000.0,N
1656698875.6,286047002.6,N
1656698895.4,286047000.2,N
1656698915.3,286046999.7,N
1656698935.1,286047002.3,N
1656698955.8,286047002.0,N
1656698975.7,286047004.4,N
1656698995.5,286047002.2,N
1656699015.4,286047002.5,N
1656699035.2,286047002.6,N
1656699055.0,286047002.8,N
1656699055.9,286047002.8,N
1656699075.8,286047002.0,N
1656699095.6,286047002.8,N
1656699115.4,286047002.5,N
1656699135.3,286047002.3,N
1656699155.1,286046999.8,N
1656699175.9,286046999.7,N
1656699195.7,286047000.4,N
1656699215.5,286047001.1,N
1656699235.4,286047001.2,N
1656699255.2,286047000.8,N
1656699275.1,286047001.1,N
1656699276.0,286047001.1,N
1656699295.8,286047001.1,N
1656699315.6,286046998.5,N
1656699335.5,286047001.1,N
1656699355.3,286047001.0,N
1656699375.1,286047000.0,N
1656699395.9,286047001.1,N
1656699415.7,286047000.6,N
1656699435.6,286047000.6,N
1656699455.4,286046998.1,N
1656699475.2,286047000.7,N
1656699495.1,286047000.3,N
1656699496.0,286047000.3,N
1656699515.8,286047000.2,N
1656699535.6,286047000.1,N
1656699555.5,286046999.7,N
1656699575.3,286046999.8,N
1656699595.2,286047000.3,N
1656699615.9,286047000.1,N
1656699635.7,286047000.5,N
1656699655.6,286047000.6,N
1656699675.4,286047000.9,N
1656699695.2,286047001.1,N
1656699715.1,286046998.1,N
1656699716.0,286046998.1,N
1656699735.8,286046998.2,N
1656699755.7,286046999.6,N
1656699775.5,286046999.4,N
1656699795.3,286046999.3,N
1656699815.2,286046998.8,N
1656699835.0,286046999.6,N
1656699835.9,286046999.6,N
1656699855.7,286046999.1,N
1656699875.6,286046999.3,N
1656699895.4,286046999.5,N
1656699915.3,286046998.3,N
1656699935.1,286046998.6,N
1656699936.0,286046998.6,N
1656699955.8,286046998.8,N
1656699975.7,286046998.6,N
1656699995.5,286046998.8,N
1656700015.3,286046998.6,N
1656700035.2,286047001.2,N
1656700055.0,286047001.2,N
1656700055.9,286047001.2,N
1656700075.8,286046998.3,N
1656700095.6,286046998.4,N
1656700115.4,286046998.9,N
1656700135.3,286046998.7,N
1656700155.1,286046999.0,N
1656700175.8,286047001.1,N
1656700195.7,286046998.6,N
1656700215.5,286046998.4,N
1656700235.4,286047001.2,N
1656700255.2,286046998.8,N
1656700275.0,286046998.9,N
1656700275.9,286046998.9,N
1656700295.8,286046999.6,N
1656700315.6,286046999.3,N
1656700335.4,286046999.0,N
1656700355.3,286046999.1,N
1656700375.1,286047000.7,N
1656700395.8,286046999.3,N
1656700415.7,286046999.0,N
1656700435.5,286046999.4,N
1656700455.4,286046999.3,N
1656700475.2,286046998.9,N
1656700495.0,286046996.5,Y
1656700495.9,286046996.5,P
1656700515.8,286046998.2,N
1656700535.6,286047001.1,N
1656700555.4,286046998.2,N
1656700575.3,286047000.7,N
1656700595.1,286047000.7,N
1656700615.9,286047000.8,N
1656700635.7,286047001.1,N
1656700655.5,286046999.3,N
1656700675.4,286046998.2,N
1656700695.2,286047000.9,N
1656700715.0,286046998.5,N
1656700715.9,286046998.5,N
1656700735.8,286047000.9,N
1656700755.6,286047001.1,N
1656700775.5,286047001.2,N
1656700795.3,286046998.4,N
1656700815.1,286046998.3,N
1656700835.9,286046998.1,N
1656700855.7,286046998.1,N
1656700875.5,286046998.2,N
1656700895.4,286047001.0,N
1656700915.2,286047001.0,N
1656700935.0,286046998.5,N
1656700936.0,286046998.5,N
1656700955.8,286046999.9,N
1656700975.6,286047000.0,N
1656700995.5,286046998.5,N
1656701015.3,286047000.9,N
1656701035.1,286046998.2,N
1656701055.9,286047000.8,N
1656701075.7,286047000.8,N
1656701095.5,286047000.4,N
1656701115.4,286046998.4,N
1656701135.2,286047000.7,N
1656701155.1,286047000.5,N
1656701156.0,286047000.5,N
1656701175.8,286047000.3,N
1656701195.6,286047002.8,N
1656701215.5,286046999.9,N
1656701235.3,286046999.7,N
1656701255.1,286047000.7,N
1656701275.9,286047000.5,N
1656701295.7,286047002.3,N
1656701315.6,286047002.4,N
1656701335.4,286047002.4,N
1656701355.2,286047000.2,N
1656701375.1,286047000.1,N
1656701376.0,286047000.1,N
1656701395.8,286047000.2,N
1656701415.6,286047000.5,N
1656701435.5,286047002.8,N
1656701455.3,286047002.8,N
1656701475.2,286047000.1,N
1656701495.9,286046999.8,N
1656701515.7,286047002.8,N
1656701535.6,286047002.7,N
1656701555.4,286047000.4,N
1656701575.2,286047000.8,N
1656701595.1,286046998.2,N
1656701596.0,286046998.2,N
1656701615.8,286046998.4,N
1656701635.7,286046998.2,N
1656701655.5,286046998.7,N
1656701675.3,286046998.8,N
1656701695.2,286047000.5,N
1656701715.0,286046999.8,N
1656701715.9,286046999.8,N
1656701735.7,286047002.5,N
1656701755.6,286047000.4,N
1656701775.4,286047002.8,N
1656701795.3,286047002.6,N
1656701815.1,286047002.4,N
1656701816.0,286047002.4,N
1656701835.8,286047001.7,N
1656701855.7,286047001.9,N
1656701875.5,286047002.5,N
1656701895.3,286047002.3,N
1656701915.2,286047002.1,N
1656701935.0,286047001.7,N
1656701935.9,286047001.7,N
1656701955.8,286047001.7,N
1656701975.6,286047004.0,N
1656701995.4,286047003.9,N
